contact:dominique.lefevre@mio.osupytheas.fr, maurice.libes@osupytheas.fr, didier.mallarino@osupytheas.fr
Project:EMSO http://www.emso-fr.org/EMSO-France
Depth: 2436.0 m
Title:EMSO Ligure Ouest : Data MII capteur MICROCAT
DateTime_Computer,Latitude,Longitude,Temperature,Conductivity,Pressure,DateTime_Instrument
DateTime_Computer,Latitude,Longitude,degC,S m-1,dbar,DateTime_Instrument
2020-01-31T00:00:33Z,42.805,6.029,13.2960,4.59963,2469.97,2020-1-31T02:01:07Z
2020-01-31T00:03:36Z,42.805,6.029,13.2958,4.59966,2469.993,2020-1-31T02:04:10Z
2020-01-31T00:06:39Z,42.805,6.029,13.2953,4.59965,2469.993,2020-1-31T02:07:13Z
2020-01-31T00:09:43Z,42.805,6.029,13.2959,4.59961,2469.96,2020-1-31T02:10:16Z
2020-01-31T00:12:46Z,42.805,6.029,13.2960,4.59964,2469.984,2020-1-31T02:13:19Z
2020-01-31T00:15:49Z,42.805,6.029,13.2957,4.59961,2470.007,2020-1-31T02:16:23Z
2020-01-31T00:18:52Z,42.805,6.029,13.2959,4.59964,2469.97,2020-1-31T02:19:26Z
2020-01-31T00:21:55Z,42.805,6.029,13.2961,4.59961,2469.96,2020-1-31T02:22:29Z
2020-01-31T00:24:59Z,42.805,6.029,13.2958,4.59963,2469.97,2020-1-31T02:25:32Z
2020-01-31T00:28:02Z,42.805,6.029,13.2960,4.59964,2469.96,2020-1-31T02:28:35Z
2020-01-31T00:31:05Z,42.805,6.029,13.2962,4.59964,2469.947,2020-1-31T02:31:39Z
2020-01-31T00:34:08Z,42.805,6.029,13.2962,4.59962,2469.96,2020-1-31T02:34:42Z
2020-01-31T00:37:11Z,42.805,6.029,13.2956,4.59961,2469.947,2020-1-31T02:37:45Z
2020-01-31T00:40:15Z,42.805,6.029,13.2958,4.59964,2469.97,2020-1-31T02:40:48Z
2020-01-31T00:43:18Z,42.805,6.029,13.2961,4.59961,2469.947,2020-1-31T02:43:51Z
2020-01-31T00:46:21Z,42.805,6.029,13.2963,4.59961,2469.984,2020-1-31T02:46:55Z
2020-01-31T00:49:24Z,42.805,6.029,13.2960,4.59966,2469.984,2020-1-31T02:49:58Z
2020-01-31T00:52:27Z,42.805,6.029,13.2960,4.59966,2469.993,2020-1-31T02:53:01Z
2020-01-31T00:55:31Z,42.805,6.029,13.2959,4.59964,2469.97,2020-1-31T02:56:04Z
2020-01-31T00:58:34Z,42.805,6.029,13.2957,4.59968,2469.947,2020-1-31T02:59:08Z
2020-01-31T01:01:37Z,42.805,6.029,13.2959,4.59961,2469.993,2020-1-31T03:02:11Z
2020-01-31T01:04:40Z,42.805,6.029,13.2969,4.59980,2469.947,2020-1-31T03:05:14Z
2020-01-31T01:07:43Z,42.805,6.029,13.2958,4.59968,2469.947,2020-1-31T03:08:17Z
2020-01-31T01:10:47Z,42.805,6.029,13.2962,4.59971,2469.947,2020-1-31T03:11:20Z
2020-01-31T01:13:50Z,42.805,6.029,13.2961,4.59991,2469.984,2020-1-31T03:14:24Z
2020-01-31T01:16:53Z,42.805,6.029,13.2961,4.59968,2469.97,2020-1-31T03:17:27Z
2020-01-31T01:19:56Z,42.805,6.029,13.2958,4.59967,2469.923,2020-1-31T03:20:30Z
2020-01-31T01:23:00Z,42.805,6.029,13.2956,4.59968,2469.947,2020-1-31T03:23:33Z
2020-01-31T01:26:03Z,42.805,6.029,13.2960,4.59968,2469.96,2020-1-31T03:26:36Z
2020-01-31T01:29:06Z,42.805,6.029,13.2958,4.59966,2469.947,2020-1-31T03:29:40Z
2020-01-31T01:32:09Z,42.805,6.029,13.2958,4.59968,2469.947,2020-1-31T03:32:43Z
2020-01-31T01:35:12Z,42.805,6.029,13.2961,4.59978,2469.97,2020-1-31T03:35:46Z
2020-01-31T01:38:16Z,42.805,6.029,13.2961,4.59994,2469.937,2020-1-31T03:38:49Z
2020-01-31T01:41:19Z,42.805,6.029,13.2961,4.59968,2469.96,2020-1-31T03:41:52Z
2020-01-31T01:44:22Z,42.805,6.029,13.2960,4.59961,2469.923,2020-1-31T03:44:56Z
2020-01-31T01:47:25Z,42.805,6.029,13.2960,4.59966,2469.97,2020-1-31T03:47:59Z
2020-01-31T01:50:28Z,42.805,6.029,13.2963,4.59968,2469.923,2020-1-31T03:51:02Z
2020-01-31T01:53:32Z,42.805,6.029,13.2977,4.59968,2469.937,2020-1-31T03:54:05Z
2020-01-31T01:56:35Z,42.805,6.029,13.2971,4.59976,2469.984,2020-1-31T03:57:08Z
2020-01-31T01:59:38Z,42.805,6.029,13.2961,4.59971,2469.984,2020-1-31T04:00:12Z
2020-01-31T02:02:41Z,42.805,6.029,13.2959,4.59966,2469.937,2020-1-31T04:03:15Z
2020-01-31T02:05:44Z,42.805,6.029,13.2960,4.59962,2469.876,2020-1-31T04:06:18Z
2020-01-31T02:08:48Z,42.805,6.029,13.2960,4.59962,2469.923,2020-1-31T04:09:21Z
2020-01-31T02:11:51Z,42.805,6.029,13.2961,4.59966,2469.937,2020-1-31T04:12:24Z
2020-01-31T02:14:54Z,42.805,6.029,13.2962,4.59973,2469.947,2020-1-31T04:15:28Z
2020-01-31T02:17:57Z,42.805,6.029,13.2964,4.59976,2469.97,2020-1-31T04:18:31Z
2020-01-31T02:21:00Z,42.805,6.029,13.2959,4.59970,2469.923,2020-1-31T04:21:34Z
2020-01-31T02:24:03Z,42.805,6.029,13.2960,4.59973,2469.923,2020-1-31T04:24:37Z
2020-01-31T02:27:07Z,42.805,6.029,13.2958,4.59976,2469.984,2020-1-31T04:27:40Z
2020-01-31T02:30:10Z,42.805,6.029,13.2961,4.59968,2469.947,2020-1-31T04:30:44Z
2020-01-31T02:33:13Z,42.805,6.029,13.2987,4.59986,2469.96,2020-1-31T04:33:47Z
2020-01-31T02:36:16Z,42.805,6.029,13.2962,4.59972,2469.9,2020-1-31T04:36:50Z
2020-01-31T02:39:19Z,42.805,6.029,13.2960,4.59974,2469.937,2020-1-31T04:39:53Z
2020-01-31T02:42:23Z,42.805,6.029,13.2986,4.59969,2469.937,2020-1-31T04:42:56Z
2020-01-31T02:45:26Z,42.805,6.029,13.2957,4.59961,2469.923,2020-1-31T04:46:00Z
2020-01-31T02:48:30Z,42.805,6.029,13.2961,4.59968,2469.914,2020-1-31T04:49:03Z
2020-01-31T02:51:33Z,42.805,6.029,13.2957,4.59964,2469.9,2020-1-31T04:52:06Z
2020-01-31T02:54:36Z,42.805,6.029,13.2961,4.59973,2469.914,2020-1-31T04:55:10Z
2020-01-31T02:57:39Z,42.805,6.029,13.2961,4.59983,2469.937,2020-1-31T04:58:13Z
2020-01-31T03:00:42Z,42.805,6.029,13.2961,4.59976,2469.937,2020-1-31T05:01:16Z
2020-01-31T03:03:46Z,42.805,6.029,13.2961,4.59982,2469.9,2020-1-31T05:04:19Z
2020-01-31T03:06:49Z,42.805,6.029,13.2958,4.59973,2469.909,2020-1-31T05:07:22Z
2020-01-31T03:09:52Z,42.805,6.029,13.2958,4.59966,2469.937,2020-1-31T05:10:26Z
2020-01-31T03:12:55Z,42.805,6.029,13.2960,4.59968,2469.876,2020-1-31T05:13:29Z
2020-01-31T03:15:58Z,42.805,6.029,13.2961,4.59980,2469.89,2020-1-31T05:16:32Z
2020-01-31T03:19:02Z,42.805,6.029,13.2963,4.59979,2469.914,2020-1-31T05:19:35Z
2020-01-31T03:22:05Z,42.805,6.029,13.2961,4.59968,2469.9,2020-1-31T05:22:38Z
2020-01-31T03:25:08Z,42.805,6.029,13.2958,4.59976,2469.923,2020-1-31T05:25:42Z
2020-01-31T03:28:12Z,42.805,6.029,13.2965,4.59975,2469.9,2020-1-31T05:28:45Z
2020-01-31T03:31:15Z,42.805,6.029,13.2974,4.59968,2469.923,2020-1-31T05:31:48Z
2020-01-31T03:34:18Z,42.805,6.029,13.2959,4.59969,2469.9,2020-1-31T05:34:52Z
2020-01-31T03:37:21Z,42.805,6.029,13.2959,4.59976,2469.914,2020-1-31T05:37:55Z
2020-01-31T03:40:24Z,42.805,6.029,13.2961,4.59970,2469.937,2020-1-31T05:40:58Z
2020-01-31T03:43:28Z,42.805,6.029,13.2959,4.59965,2469.947,2020-1-31T05:44:02Z
2020-01-31T03:46:31Z,42.805,6.029,13.2963,4.59971,2469.914,2020-1-31T05:47:05Z
2020-01-31T03:49:34Z,42.805,6.029,13.2958,4.59970,2469.923,2020-1-31T05:50:08Z
2020-01-31T03:52:38Z,42.805,6.029,13.2961,4.59968,2469.9,2020-1-31T05:53:11Z
2020-01-31T03:55:41Z,42.805,6.029,13.2966,4.59964,2469.923,2020-1-31T05:56:14Z
2020-01-31T03:58:44Z,42.805,6.029,13.2957,4.59964,2469.947,2020-1-31T05:59:18Z
2020-01-31T04:01:47Z,42.805,6.029,13.2959,4.59982,2469.923,2020-1-31T06:02:21Z
2020-01-31T04:04:50Z,42.805,6.029,13.2961,4.59963,2469.937,2020-1-31T06:05:24Z
2020-01-31T04:07:54Z,42.805,6.029,13.2963,4.59965,2469.914,2020-1-31T06:08:27Z
2020-01-31T04:10:57Z,42.805,6.029,13.2956,4.59968,2469.9,2020-1-31T06:11:30Z
2020-01-31T04:14:00Z,42.805,6.029,13.2961,4.59963,2469.914,2020-1-31T06:14:34Z
2020-01-31T04:17:03Z,42.805,6.029,13.2957,4.59969,2469.937,2020-1-31T06:17:37Z
2020-01-31T04:20:06Z,42.805,6.029,13.2956,4.59961,2469.914,2020-1-31T06:20:40Z
2020-01-31T04:23:09Z,42.805,6.029,13.2959,4.59967,2469.923,2020-1-31T06:23:43Z
2020-01-31T04:26:13Z,42.805,6.029,13.2960,4.59969,2469.914,2020-1-31T06:26:46Z
2020-01-31T04:29:16Z,42.805,6.029,13.2961,4.59973,2469.947,2020-1-31T06:29:50Z
2020-01-31T04:32:19Z,42.805,6.029,13.2957,4.59967,2469.923,2020-1-31T06:32:53Z
2020-01-31T04:35:22Z,42.805,6.029,13.2960,4.59966,2469.923,2020-1-31T06:35:56Z
2020-01-31T04:38:25Z,42.805,6.029,13.2959,4.59972,2469.9,2020-1-31T06:38:59Z
2020-01-31T04:41:29Z,42.805,6.029,13.2959,4.59964,2469.886,2020-1-31T06:42:02Z
2020-01-31T04:44:32Z,42.805,6.029,13.2959,4.59964,2469.914,2020-1-31T06:45:06Z
2020-01-31T04:47:35Z,42.805,6.029,13.2958,4.59972,2469.914,2020-1-31T06:48:09Z
2020-01-31T04:50:38Z,42.805,6.029,13.2961,4.59973,2469.9,2020-1-31T06:51:12Z
2020-01-31T04:53:41Z,42.805,6.029,13.2963,4.59964,2469.914,2020-1-31T06:54:15Z
2020-01-31T04:56:44Z,42.805,6.029,13.2960,4.59961,2469.914,2020-1-31T06:57:18Z
2020-01-31T04:59:48Z,42.805,6.029,13.2961,4.59961,2469.9,2020-1-31T07:00:21Z
2020-01-31T05:02:51Z,42.805,6.029,13.2965,4.59972,2469.923,2020-1-31T07:03:25Z
2020-01-31T05:05:54Z,42.805,6.029,13.2960,4.59961,2469.96,2020-1-31T07:06:28Z
2020-01-31T05:08:57Z,42.805,6.029,13.2961,4.59962,2469.9,2020-1-31T07:09:31Z
2020-01-31T05:12:00Z,42.805,6.029,13.2958,4.59963,2469.937,2020-1-31T07:12:34Z
2020-01-31T05:15:04Z,42.805,6.029,13.2958,4.59963,2469.914,2020-1-31T07:15:37Z
2020-01-31T05:18:07Z,42.805,6.029,13.2957,4.59961,2469.9,2020-1-31T07:18:41Z
2020-01-31T05:21:10Z,42.805,6.029,13.2960,4.59966,2469.9,2020-1-31T07:21:44Z
2020-01-31T05:24:13Z,42.805,6.029,13.2963,4.59962,2469.876,2020-1-31T07:24:47Z
2020-01-31T05:27:17Z,42.805,6.029,13.2961,4.59963,2469.89,2020-1-31T07:27:50Z
2020-01-31T05:30:20Z,42.805,6.029,13.2959,4.59962,2469.923,2020-1-31T07:30:54Z
2020-01-31T05:33:23Z,42.805,6.029,13.2959,4.59967,2469.9,2020-1-31T07:33:57Z
2020-01-31T05:36:26Z,42.805,6.029,13.2962,4.59968,2469.923,2020-1-31T07:37:00Z
2020-01-31T05:39:29Z,42.805,6.029,13.2960,4.59979,2469.923,2020-1-31T07:40:03Z
2020-01-31T05:42:33Z,42.805,6.029,13.2958,4.59973,2469.9,2020-1-31T07:43:06Z
2020-01-31T05:45:36Z,42.805,6.029,13.2964,4.59964,2469.9,2020-1-31T07:46:09Z
2020-01-31T05:48:39Z,42.805,6.029,13.2961,4.59968,2469.914,2020-1-31T07:49:13Z
2020-01-31T05:51:42Z,42.805,6.029,13.2957,4.59964,2469.89,2020-1-31T07:52:16Z
2020-01-31T05:54:45Z,42.805,6.029,13.2960,4.59964,2469.909,2020-1-31T07:55:19Z
2020-01-31T05:57:49Z,42.805,6.029,13.2958,4.59963,2469.923,2020-1-31T07:58:22Z
2020-01-31T06:00:52Z,42.805,6.029,13.2962,4.59962,2469.914,2020-1-31T08:01:26Z
2020-01-31T06:03:55Z,42.805,6.029,13.2963,4.59967,2469.9,2020-1-31T08:04:29Z
2020-01-31T06:06:58Z,42.805,6.029,13.2960,4.59963,2469.9,2020-1-31T08:07:32Z
2020-01-31T06:10:01Z,42.805,6.029,13.2958,4.59964,2469.96,2020-1-31T08:10:35Z
2020-01-31T06:13:05Z,42.805,6.029,13.2958,4.59971,2469.9,2020-1-31T08:13:38Z
2020-01-31T06:16:08Z,42.805,6.029,13.2958,4.59961,2469.937,2020-1-31T08:16:42Z
2020-01-31T06:19:11Z,42.805,6.029,13.2959,4.59980,2469.923,2020-1-31T08:19:45Z
2020-01-31T06:22:14Z,42.805,6.029,13.2958,4.59962,2469.9,2020-1-31T08:22:48Z
2020-01-31T06:25:17Z,42.805,6.029,13.2958,4.59961,2469.97,2020-1-31T08:25:51Z
2020-01-31T06:28:21Z,42.805,6.029,13.2959,4.59961,2469.9,2020-1-31T08:28:54Z
2020-01-31T06:31:24Z,42.805,6.029,13.2961,4.59964,2469.923,2020-1-31T08:31:58Z
2020-01-31T06:34:27Z,42.805,6.029,13.2960,4.59964,2469.984,2020-1-31T08:35:01Z
2020-01-31T06:37:30Z,42.805,6.029,13.2957,4.59965,2469.947,2020-1-31T08:38:04Z
2020-01-31T06:40:33Z,42.805,6.029,13.2958,4.59963,2469.914,2020-1-31T08:41:07Z
2020-01-31T06:43:37Z,42.805,6.029,13.2959,4.59966,2469.914,2020-1-31T08:44:10Z
2020-01-31T06:46:40Z,42.805,6.029,13.2958,4.59963,2469.96,2020-1-31T08:47:14Z
2020-01-31T06:49:43Z,42.805,6.029,13.2961,4.59971,2469.937,2020-1-31T08:50:17Z
2020-01-31T06:52:46Z,42.805,6.029,13.2959,4.59964,2469.923,2020-1-31T08:53:20Z
2020-01-31T06:55:49Z,42.805,6.029,13.2955,4.59963,2469.937,2020-1-31T08:56:23Z
2020-01-31T06:58:53Z,42.805,6.029,13.2958,4.59964,2469.923,2020-1-31T08:59:26Z
2020-01-31T07:01:56Z,42.805,6.029,13.2961,4.59969,2469.96,2020-1-31T09:02:30Z
2020-01-31T07:04:59Z,42.805,6.029,13.2960,4.59963,2469.923,2020-1-31T09:05:33Z
2020-01-31T07:08:02Z,42.805,6.029,13.2968,4.59971,2469.923,2020-1-31T09:08:36Z
2020-01-31T07:11:05Z,42.805,6.029,13.2961,4.59965,2469.984,2020-1-31T09:11:39Z
2020-01-31T07:14:09Z,42.805,6.029,13.2960,4.59966,2469.947,2020-1-31T09:14:42Z
2020-01-31T07:17:12Z,42.805,6.029,13.2964,4.59966,2469.923,2020-1-31T09:17:45Z
2020-01-31T07:20:15Z,42.805,6.029,13.2960,4.59961,2469.96,2020-1-31T09:20:49Z
2020-01-31T07:23:18Z,42.805,6.029,13.2961,4.59964,2469.96,2020-1-31T09:23:52Z
2020-01-31T07:26:21Z,42.805,6.029,13.2958,4.59962,2469.947,2020-1-31T09:26:55Z
2020-01-31T07:29:25Z,42.805,6.029,13.2958,4.59961,2469.923,2020-1-31T09:29:58Z
2020-01-31T07:32:28Z,42.805,6.029,13.2960,4.59961,2469.96,2020-1-31T09:33:01Z
2020-01-31T07:35:31Z,42.805,6.029,13.2962,4.59962,2469.947,2020-1-31T09:36:05Z
2020-01-31T07:38:34Z,42.805,6.029,13.2959,4.59962,2469.97,2020-1-31T09:39:08Z
2020-01-31T07:41:37Z,42.805,6.029,13.2961,4.59960,2469.993,2020-1-31T09:42:11Z
2020-01-31T07:44:40Z,42.805,6.029,13.2959,4.59963,2469.984,2020-1-31T09:45:14Z
2020-01-31T07:47:44Z,42.805,6.029,13.2959,4.59960,2469.96,2020-1-31T09:48:17Z
2020-01-31T07:50:47Z,42.805,6.029,13.2961,4.59961,2469.993,2020-1-31T09:51:21Z
2020-01-31T07:53:50Z,42.805,6.029,13.2961,4.59961,2469.97,2020-1-31T09:54:24Z
2020-01-31T07:56:53Z,42.805,6.029,13.2964,4.59961,2469.984,2020-1-31T09:57:27Z
2020-01-31T07:59:57Z,42.805,6.029,13.2958,4.59961,2469.97,2020-1-31T10:00:30Z
2020-01-31T08:03:00Z,42.805,6.029,13.2959,4.59964,2469.993,2020-1-31T10:03:33Z
2020-01-31T08:06:03Z,42.805,6.029,13.2961,4.59961,2470.017,2020-1-31T10:06:37Z
2020-01-31T08:09:06Z,42.805,6.029,13.2961,4.59961,2470.007,2020-1-31T10:09:40Z
2020-01-31T08:12:09Z,42.805,6.029,13.2958,4.59962,2470.03,2020-1-31T10:12:43Z
2020-01-31T08:15:13Z,42.805,6.029,13.2961,4.59961,2469.993,2020-1-31T10:15:46Z
2020-01-31T08:18:16Z,42.805,6.029,13.2961,4.59961,2470.017,2020-1-31T10:18:50Z
2020-01-31T08:21:19Z,42.805,6.029,13.2958,4.59961,2470.007,2020-1-31T10:21:53Z
2020-01-31T08:24:22Z,42.805,6.029,13.2957,4.59961,2470.03,2020-1-31T10:24:56Z
2020-01-31T08:27:26Z,42.805,6.029,13.2960,4.59961,2469.97,2020-1-31T10:27:59Z
2020-01-31T08:30:29Z,42.805,6.029,13.2960,4.59961,2470.003,2020-1-31T10:31:02Z
2020-01-31T08:33:32Z,42.805,6.029,13.2960,4.59961,2470.03,2020-1-31T10:34:06Z
2020-01-31T08:36:35Z,42.805,6.029,13.2964,4.59961,2469.993,2020-1-31T10:37:09Z
2020-01-31T08:39:38Z,42.805,6.029,13.2960,4.59961,2469.993,2020-1-31T10:40:12Z
2020-01-31T08:42:42Z,42.805,6.029,13.2962,4.59961,2470.063,2020-1-31T10:43:15Z
2020-01-31T08:45:45Z,42.805,6.029,13.2961,4.59961,2470.03,2020-1-31T10:46:19Z
2020-01-31T08:48:48Z,42.805,6.029,13.2960,4.59961,2469.993,2020-1-31T10:49:22Z
2020-01-31T08:51:51Z,42.805,6.029,13.2959,4.59960,2470.04,2020-1-31T10:52:25Z
2020-01-31T08:54:54Z,42.805,6.029,13.2958,4.59961,2470.04,2020-1-31T10:55:28Z
2020-01-31T08:57:58Z,42.805,6.029,13.2960,4.59961,2470.017,2020-1-31T10:58:31Z
2020-01-31T09:01:01Z,42.805,6.029,13.2961,4.59961,2470.04,2020-1-31T11:01:35Z
2020-01-31T09:04:04Z,42.805,6.029,13.2958,4.59961,2470.053,2020-1-31T11:04:38Z
2020-01-31T09:07:07Z,42.805,6.029,13.2961,4.59962,2470.04,2020-1-31T11:07:41Z
2020-01-31T09:10:11Z,42.805,6.029,13.2955,4.59959,2470.04,2020-1-31T11:10:44Z
2020-01-31T09:13:14Z,42.805,6.029,13.2963,4.59961,2470.03,2020-1-31T11:13:47Z
2020-01-31T09:16:17Z,42.805,6.029,13.2958,4.59961,2470.03,2020-1-31T11:16:51Z
2020-01-31T09:19:20Z,42.805,6.029,13.2958,4.59959,2470.077,2020-1-31T11:19:54Z
2020-01-31T09:22:23Z,42.805,6.029,13.2957,4.59960,2470.04,2020-1-31T11:22:57Z
2020-01-31T09:25:27Z,42.805,6.029,13.2963,4.59961,2470.077,2020-1-31T11:26:00Z
2020-01-31T09:28:30Z,42.805,6.029,13.2958,4.59961,2470.04,2020-1-31T11:29:03Z
2020-01-31T09:31:33Z,42.805,6.029,13.2956,4.59961,2470.04,2020-1-31T11:32:07Z
2020-01-31T09:34:36Z,42.805,6.029,13.2958,4.59961,2470.063,2020-1-31T11:35:10Z
2020-01-31T09:37:39Z,42.805,6.029,13.2958,4.59961,2470.077,2020-1-31T11:38:13Z
2020-01-31T09:40:43Z,42.805,6.029,13.2964,4.59960,2470.124,2020-1-31T11:41:16Z
2020-01-31T09:43:46Z,42.805,6.029,13.2959,4.59962,2470.077,2020-1-31T11:44:20Z
2020-01-31T09:46:49Z,42.805,6.029,13.2961,4.59960,2470.063,2020-1-31T11:47:23Z
2020-01-31T09:49:52Z,42.805,6.029,13.2958,4.59963,2470.053,2020-1-31T11:50:26Z
2020-01-31T09:52:55Z,42.805,6.029,13.2960,4.59961,2470.063,2020-1-31T11:53:29Z
2020-01-31T09:55:59Z,42.805,6.029,13.2960,4.59962,2470.063,2020-1-31T11:56:33Z
2020-01-31T09:59:02Z,42.805,6.029,13.2959,4.59964,2470.04,2020-1-31T11:59:36Z
2020-01-31T10:02:05Z,42.805,6.029,13.2960,4.59961,2470.063,2020-1-31T12:02:39Z
2020-01-31T10:05:08Z,42.805,6.029,13.2961,4.59962,2470.063,2020-1-31T12:05:42Z
2020-01-31T10:08:12Z,42.805,6.029,13.2963,4.59961,2470.077,2020-1-31T12:08:45Z
2020-01-31T10:11:15Z,42.805,6.029,13.2960,4.59962,2470.063,2020-1-31T12:11:49Z
2020-01-31T10:14:18Z,42.805,6.029,13.2961,4.59962,2470.087,2020-1-31T12:14:52Z
2020-01-31T10:17:21Z,42.805,6.029,13.2958,4.59962,2470.063,2020-1-31T12:17:55Z
2020-01-31T10:20:25Z,42.805,6.029,13.2958,4.59961,2470.063,2020-1-31T12:20:58Z
2020-01-31T10:23:28Z,42.805,6.029,13.2960,4.59962,2470.063,2020-1-31T12:24:01Z
2020-01-31T10:26:31Z,42.805,6.029,13.2960,4.59961,2470.1,2020-1-31T12:27:05Z
2020-01-31T10:29:34Z,42.805,6.029,13.2960,4.59962,2470.077,2020-1-31T12:30:08Z
2020-01-31T10:32:37Z,42.805,6.029,13.2961,4.59961,2470.11,2020-1-31T12:33:11Z
2020-01-31T10:35:41Z,42.805,6.029,13.2962,4.59962,2470.1,2020-1-31T12:36:14Z
2020-01-31T10:38:44Z,42.805,6.029,13.2960,4.59962,2470.1,2020-1-31T12:39:18Z
2020-01-31T10:41:47Z,42.805,6.029,13.2959,4.59962,2470.11,2020-1-31T12:42:21Z
2020-01-31T10:44:50Z,42.805,6.029,13.2958,4.59963,2470.11,2020-1-31T12:45:24Z
2020-01-31T10:47:54Z,42.805,6.029,13.2958,4.59961,2470.063,2020-1-31T12:48:27Z
2020-01-31T10:50:57Z,42.805,6.029,13.2958,4.59961,2470.087,2020-1-31T12:51:30Z
2020-01-31T10:54:00Z,42.805,6.029,13.2959,4.59961,2470.077,2020-1-31T12:54:34Z
2020-01-31T10:57:03Z,42.805,6.029,13.2958,4.59961,2470.063,2020-1-31T12:57:37Z
2020-01-31T11:00:06Z,42.805,6.029,13.2957,4.59963,2470.1,2020-1-31T13:00:40Z
2020-01-31T11:03:10Z,42.805,6.029,13.2961,4.59962,2470.087,2020-1-31T13:03:44Z
2020-01-31T11:06:13Z,42.805,6.029,13.2959,4.59961,2470.077,2020-1-31T13:06:47Z
2020-01-31T11:09:16Z,42.805,6.029,13.2960,4.59963,2470.063,2020-1-31T13:09:50Z
2020-01-31T11:12:19Z,42.805,6.029,13.2957,4.59962,2470.1,2020-1-31T13:12:53Z
2020-01-31T11:15:23Z,42.805,6.029,13.2961,4.59962,2470.124,2020-1-31T13:15:56Z
2020-01-31T11:18:26Z,42.805,6.029,13.2958,4.59961,2470.087,2020-1-31T13:18:59Z
2020-01-31T11:21:29Z,42.805,6.029,13.2960,4.59961,2470.124,2020-1-31T13:22:03Z
2020-01-31T11:24:32Z,42.805,6.029,13.2959,4.59961,2470.077,2020-1-31T13:25:06Z
2020-01-31T11:27:35Z,42.805,6.029,13.2960,4.59962,2470.124,2020-1-31T13:28:09Z
2020-01-31T11:30:39Z,42.805,6.029,13.2961,4.59961,2470.11,2020-1-31T13:31:13Z
2020-01-31T11:33:42Z,42.805,6.029,13.2961,4.59961,2470.133,2020-1-31T13:34:16Z
2020-01-31T11:36:45Z,42.805,6.029,13.2963,4.59963,2470.087,2020-1-31T13:37:19Z
2020-01-31T11:39:48Z,42.805,6.029,13.2960,4.59962,2470.124,2020-1-31T13:40:22Z
2020-01-31T11:42:52Z,42.805,6.029,13.2961,4.59961,2470.087,2020-1-31T13:43:25Z
2020-01-31T11:45:55Z,42.805,6.029,13.2954,4.59961,2470.063,2020-1-31T13:46:28Z
2020-01-31T11:48:58Z,42.805,6.029,13.2961,4.59961,2470.087,2020-1-31T13:49:32Z
2020-01-31T11:52:01Z,42.805,6.029,13.2961,4.59961,2470.087,2020-1-31T13:52:35Z
2020-01-31T11:55:05Z,42.805,6.029,13.2959,4.59962,2470.087,2020-1-31T13:55:38Z
2020-01-31T11:58:08Z,42.805,6.029,13.2960,4.59962,2470.1,2020-1-31T13:58:41Z
2020-01-31T12:01:11Z,42.805,6.029,13.2957,4.59961,2470.04,2020-1-31T14:01:45Z
2020-01-31T12:04:14Z,42.805,6.029,13.2960,4.59961,2470.077,2020-1-31T14:04:48Z
2020-01-31T12:07:17Z,42.805,6.029,13.2958,4.59962,2470.053,2020-1-31T14:07:51Z
2020-01-31T12:10:20Z,42.805,6.029,13.2958,4.59961,2470.11,2020-1-31T14:10:54Z
2020-01-31T12:13:24Z,42.805,6.029,13.2961,4.59961,2470.087,2020-1-31T14:13:57Z
2020-01-31T12:16:27Z,42.805,6.029,13.2962,4.59961,2470.087,2020-1-31T14:17:01Z
2020-01-31T12:19:30Z,42.805,6.029,13.2959,4.59961,2470.11,2020-1-31T14:20:04Z
2020-01-31T12:22:33Z,42.805,6.029,13.2958,4.59962,2470.077,2020-1-31T14:23:07Z
2020-01-31T12:25:37Z,42.805,6.029,13.2957,4.59962,2470.049,2020-1-31T14:26:10Z
2020-01-31T12:28:40Z,42.805,6.029,13.2957,4.59963,2470.077,2020-1-31T14:29:13Z
2020-01-31T12:31:43Z,42.805,6.029,13.2961,4.59964,2470.063,2020-1-31T14:32:17Z
2020-01-31T12:34:46Z,42.805,6.029,13.2962,4.59961,2470.1,2020-1-31T14:35:20Z
2020-01-31T12:37:49Z,42.805,6.029,13.2958,4.59962,2470.087,2020-1-31T14:38:23Z
2020-01-31T12:40:53Z,42.805,6.029,13.2959,4.59963,2470.063,2020-1-31T14:41:26Z
2020-01-31T12:43:56Z,42.805,6.029,13.2956,4.59962,2470.063,2020-1-31T14:44:30Z
2020-01-31T12:46:59Z,42.805,6.029,13.2958,4.59962,2470.063,2020-1-31T14:47:33Z
2020-01-31T12:50:02Z,42.805,6.029,13.2962,4.59963,2470.087,2020-1-31T14:50:36Z
2020-01-31T12:53:05Z,42.805,6.029,13.2964,4.59962,2470.1,2020-1-31T14:53:39Z
2020-01-31T12:56:09Z,42.805,6.029,13.2958,4.59962,2470.063,2020-1-31T14:56:42Z
2020-01-31T12:59:12Z,42.805,6.029,13.2958,4.59961,2470.04,2020-1-31T14:59:46Z
2020-01-31T13:02:15Z,42.805,6.029,13.2957,4.59962,2470.063,2020-1-31T15:02:49Z
2020-01-31T13:05:19Z,42.805,6.029,13.2963,4.59961,2470.077,2020-1-31T15:05:52Z
2020-01-31T13:08:22Z,42.805,6.029,13.2961,4.59961,2470.063,2020-1-31T15:08:56Z
2020-01-31T13:11:25Z,42.805,6.029,13.2960,4.59960,2470.04,2020-1-31T15:11:59Z
2020-01-31T13:14:28Z,42.805,6.029,13.2959,4.59961,2470.04,2020-1-31T15:15:02Z
2020-01-31T13:17:32Z,42.805,6.029,13.2961,4.59962,2470.077,2020-1-31T15:18:05Z
2020-01-31T13:20:35Z,42.805,6.029,13.2961,4.59961,2470.04,2020-1-31T15:21:08Z
2020-01-31T13:23:38Z,42.805,6.029,13.2961,4.59962,2470.077,2020-1-31T15:24:12Z
2020-01-31T13:26:41Z,42.805,6.029,13.2961,4.59962,2470.053,2020-1-31T15:27:15Z
2020-01-31T13:29:44Z,42.805,6.029,13.2957,4.59961,2470.053,2020-1-31T15:30:18Z
2020-01-31T13:32:47Z,42.805,6.029,13.2962,4.59961,2470.063,2020-1-31T15:33:21Z
2020-01-31T13:35:51Z,42.805,6.029,13.2960,4.59962,2470.063,2020-1-31T15:36:24Z
2020-01-31T13:38:54Z,42.805,6.029,13.2960,4.59964,2470.04,2020-1-31T15:39:28Z
2020-01-31T13:41:57Z,42.805,6.029,13.2958,4.59964,2470.03,2020-1-31T15:42:31Z
2020-01-31T13:45:00Z,42.805,6.029,13.2962,4.59962,2470.053,2020-1-31T15:45:34Z
2020-01-31T13:48:04Z,42.805,6.029,13.2960,4.59964,2470.017,2020-1-31T15:48:37Z
2020-01-31T13:51:07Z,42.805,6.029,13.2957,4.59962,2470.04,2020-1-31T15:51:40Z
2020-01-31T13:54:10Z,42.805,6.029,13.2957,4.59963,2470.03,2020-1-31T15:54:44Z
2020-01-31T13:57:13Z,42.805,6.029,13.2959,4.59963,2470.03,2020-1-31T15:57:47Z
2020-01-31T14:00:16Z,42.805,6.029,13.2957,4.59963,2470.017,2020-1-31T16:00:50Z
2020-01-31T14:03:20Z,42.805,6.029,13.2958,4.59963,2470.053,2020-1-31T16:03:53Z
2020-01-31T14:06:23Z,42.805,6.029,13.2961,4.59963,2469.993,2020-1-31T16:06:57Z
2020-01-31T14:09:26Z,42.805,6.029,13.2961,4.59961,2470.053,2020-1-31T16:10:00Z
2020-01-31T14:12:29Z,42.805,6.029,13.2959,4.59961,2470.007,2020-1-31T16:13:03Z
2020-01-31T14:15:33Z,42.805,6.029,13.2957,4.59964,2470.03,2020-1-31T16:16:06Z
2020-01-31T14:18:36Z,42.805,6.029,13.2958,4.59962,2470.03,2020-1-31T16:19:09Z
2020-01-31T14:21:39Z,42.805,6.029,13.2957,4.59963,2470.04,2020-1-31T16:22:13Z
2020-01-31T14:24:42Z,42.805,6.029,13.2961,4.59965,2470.017,2020-1-31T16:25:16Z
2020-01-31T14:27:45Z,42.805,6.029,13.2957,4.59964,2470.053,2020-1-31T16:28:19Z
2020-01-31T14:30:48Z,42.805,6.029,13.2958,4.59963,2470.017,2020-1-31T16:31:22Z
2020-01-31T14:33:52Z,42.805,6.029,13.2961,4.59962,2469.993,2020-1-31T16:34:25Z
2020-01-31T14:36:55Z,42.805,6.029,13.2960,4.59962,2470.03,2020-1-31T16:37:29Z
2020-01-31T14:39:58Z,42.805,6.029,13.2961,4.59963,2470.017,2020-1-31T16:40:32Z
2020-01-31T14:43:01Z,42.805,6.029,13.2960,4.59963,2470.017,2020-1-31T16:43:35Z
2020-01-31T14:46:05Z,42.805,6.029,13.2957,4.59963,2470.017,2020-1-31T16:46:38Z
2020-01-31T14:49:08Z,42.805,6.029,13.2961,4.59964,2470.053,2020-1-31T16:49:41Z
2020-01-31T14:52:11Z,42.805,6.029,13.2961,4.59962,2470.007,2020-1-31T16:52:45Z
2020-01-31T14:55:14Z,42.805,6.029,13.2961,4.59963,2470.017,2020-1-31T16:55:48Z
2020-01-31T14:58:17Z,42.805,6.029,13.2958,4.59961,2469.97,2020-1-31T16:58:51Z
2020-01-31T15:01:21Z,42.805,6.029,13.2958,4.59963,2470.007,2020-1-31T17:01:54Z
2020-01-31T15:04:24Z,42.805,6.029,13.2958,4.59964,2470.007,2020-1-31T17:04:57Z
2020-01-31T15:07:27Z,42.805,6.029,13.2958,4.59962,2470.017,2020-1-31T17:08:01Z
2020-01-31T15:10:30Z,42.805,6.029,13.2959,4.59962,2470.017,2020-1-31T17:11:04Z
2020-01-31T15:13:33Z,42.805,6.029,13.2961,4.59962,2470.03,2020-1-31T17:14:07Z